Simultaneous Nadir Overpasses (SNOs) Predictions

Prediction of SNOs between GOES-17 and NOAA-19 Satellite Orbit:

Table of predicted SNOs for the next 14.0 days since TLE Epoch: 4/17/2021
Index Date Time (GOES-17) GOES-17 Lat,Lon NOAA-19 Lat,Lon Distance(km) Time Diff (sec)
1 04/17/2021 16:00:46 0.02,-137.19 0.41,-138.95 199.58 80
2 04/18/2021 15:46:22 0.02,-137.19 -0.26,-136.08 126.53 80
3 04/19/2021 15:34:39 0.02,-137.18 -0.92,-133.22 452.45 80
4 04/21/2021 04:09:54 -0.02,-137.15 -0.94,-141.01 440.59 80
5 04/22/2021 03:58:11 -0.02,-137.14 -0.26,-138.15 114.91 80
6 04/23/2021 03:43:47 -0.02,-137.13 0.42,-135.29 210.68 80
7 04/25/2021 16:07:21 0.02,-137.10 0.72,-140.23 356.77 80
8 04/26/2021 15:55:37 0.02,-137.08 0.11,-137.35 31.86 80
9 04/27/2021 15:41:13 0.02,-137.06 -0.57,-134.49 293.05 80
10 04/30/2021 04:04:45 -0.01,-136.99 -0.57,-139.43 277.61 80
